This demonstration page uses our WeatherBlox Daily Observations layout. Learn more.

Left ArrowRight Arrow

39.12711, -84.51439

Hourly Observations for September 17, 2018

Temp ( °F °C ) Dew Point ( °F °C ) Humidity (%) Winds ( mph kmh ) Pressure ( in mb ) Visibility ( mi km ) Precip ( " mm )
12:53 am 00:53 Cloudy 73 22.8 71 21.7 94 94 Calm 29.96 1015 10 16 0.00 0.00
1:53 am 01:53 Cloudy 74 23.3 71 21.7 91 91 NE 7 11 29.93 1014 10 16 0.00 0.03
2:53 am 02:53 Cloudy 74 23.3 70 21.1 88 88 NNE 7 11 29.92 1013 10 16 0.00 0.00
3:53 am 03:53 Cloudy 74 23.3 70 21.1 88 88 NNE 9 15 29.91 1013 10 16 0.00 0.03
4:53 am 04:53 Mostly Clear 73 22.8 69 20.6 87 87 NNE 7 11 29.89 1012 10 16 0.00 0.00
5:53 am 05:53 Mostly Clear with Light Rain 71 21.7 71 21.7 100 100 NNE 6 9 29.89 1012 9 14 0.03 0.76
6:53 am 06:53 Partly Cloudy with Light Rain 70 21.1 70 21.1 100 100 NNE 6 9 29.89 1012 7 11 0.06 1.52
7:53 am 07:53 Mostly Cloudy with Light Rain 70 21.1 70 21.1 100 100 N 6 9 29.90 1013 7 11 0.03 0.76
8:53 am 08:53 Cloudy with Light Rain 70 21.1 70 21.1 100 100 NNE 5 7 29.91 1013 7 11 0.02 0.51
9:32 am 09:32 Cloudy with Light Rain 70 21.1 70 21.1 100 100 N 5 7 29.91 1013 3 5 0.05 1.27
9:53 am 09:53 Cloudy with Light Rain 70 21.1 70 21.1 100 100 N 6 9 29.91 1013 2 3 0.07 1.78
10:53 am 10:53 Cloudy with Rain 71 21.7 71 21.7 100 100 N 7 11 29.91 1013 4 6 0.09 2.29
11:53 am 11:53 Cloudy with Light Rain 72 22.2 72 22.2 100 100 N 8 13 29.91 1013 4 6 0.07 1.78
12:53 pm 12:53 Cloudy with Light Rain 73 22.8 73 22.8 100 100 N 8 13 29.91 1013 5 8 0.04 1.02
1:53 pm 13:53 Cloudy 77 25 74 23.3 90 90 NNW 7 11 29.89 1012 10 16 0.01 0.25
2:53 pm 14:53 Mostly Cloudy 79 26.1 73 22.8 82 82 NNW 5 7 29.87 1012 10 16 0.00 0.00
3:53 pm 15:53 Mostly Cloudy 78 25.6 73 22.8 85 85 W 8 13 29.86 1011 10 16 0.00 0.00
4:53 pm 16:53 Mostly Sunny 79 26.1 73 22.8 82 82 W 6 9 29.85 1011 10 16 0.00 0.00
5:53 pm 17:53 Sunny 78 25.6 74 23.3 87 87 WSW 5 7 29.85 1011 10 16 0.00 0.00
6:53 pm 18:53 Mostly Sunny 76 24.4 75 23.9 97 97 S 7 11 29.86 1011 10 16 0.00 0.00
7:53 pm 19:53 Partly Cloudy 76 24.4 74 23.3 94 94 W 3 6 29.87 1012 10 16 0.00 0.00
8:53 pm 20:53 Mostly Clear 73 22.8 73 22.8 100 100 Calm 29.88 1012 10 16 0.00 0.03
9:53 pm 21:53 Mostly Clear 72 22.2 72 22.2 100 100 Calm 29.91 1013 10 16 0.00 0.03
10:53 pm 22:53 Mostly Cloudy 71 21.7 71 21.7 100 100 Calm 29.91 1013 10 16 0.00 0.00
11:53 pm 23:53 Clear 71 21.7 71 21.7 100 100 Calm 29.93 1013 7 11 0.00 0.00

Powered by AerisWeather